Regional Weather Roundup
Issued by NWS

Home | Current Version | Previous Version | Text Only | Print | Product List | Glossary Off
Versions: 1 2 3 4 5 6 7 8 9 10 11 12 13 14 15 16 17 18 19 20 21 22 23 24 25 26 27 28 29 30 31 32 33 34 35 36 37 38 39 40 41 42 43 44 45 46 47 48 49 50

000
ASUS43 KLSX 111959
RWRMO

WEATHER SUMMARY FOR MISSOURI
NATIONAL WEATHER SERVICE SPRINGFIELD MO
300 PM CDT FRI JUL 11 2014

NOTE: "FAIR" INDICATES FEW OR NO CLOUDS BELOW 12,000 FEET WITH NO
       SIGNIFICANT WEATHER AND/OR OBSTRUCTIONS TO VISIBILITY.
       CURRENT SKY AND/OR WEATHER CONDITIONS ARE NOT AVAILABLE FOR
       CHILLICOTHE AND FARMINGTON.

MOZ001>031-035>038-043-044-053-054-112100-
...NORTHERN AND WESTERN MISSOURI...

CITY           SKY/WX    TMP DP  RH WIND       PRES   REMARKS
KANSAS CTY INT PTSUNNY   84  72  67 S14       30.03S
KANSAS C DTWN  PTSUNNY   87  71  58 S10       30.02F HX  93
LEE`S SUMMIT   PTSUNNY   86  73  65 S12       30.05F HX  93
ST JOSEPH      PTSUNNY   86  74  67 S16       30.00F HX  94
CHILLICOTHE      N/A     85  72  65 S12       30.03F HX  91
KIRKSVILLE     CLOUDY    83  71  67 S16       30.05F

$$
MOZ066>068-077>081-088>096-101>105-112100-
...SOUTHWEST MISSOURI...

CITY           SKY/WX    TMP DP  RH WIND       PRES   REMARKS
SPRINGFIELD    MOSUNNY   89  69  51 SW13      30.12S HX  93
JOPLIN         SUNNY     91  70  49 S14G20    30.10S HX  96

$$
MOZ032>034-039>042-045>050-055>058-069>072-112100-
...CENTRAL MISSOURI...

CITY           SKY/WX    TMP DP  RH WIND       PRES   REMARKS
COLUMBIA       MOSUNNY   87  73  62 S14       30.08F HX  94
JEFFERSON CITY MOSUNNY   88  72  58 S12       30.06F HX  94
ROLLA          MOSUNNY   87  69  54 SW10      30.11S HX  91
SEDALIA        PTSUNNY   89  74  60 SW15      30.07F HX  98
OSAGE BEACH    MOSUNNY   90  72  55 SW10      30.09F HX  96

$$
MOZ051-052-059>065-112100-
...EAST CENTRAL MISSOURI...

CITY           SKY/WX    TMP DP  RH WIND       PRES   REMARKS
ST LOUIS INTL  PTSUNNY   88  67  49 S14       30.12F HX  91
SPIRIT OF STL  PTSUNNY   88  68  51 S6        30.09F HX  91
ST CHARLES     MOSUNNY   86  67  52 S13       30.09F

$$
MOZ072>076-082>087-097>100-106>115-112100-
...SOUTH CENTRAL AND SOUTHEAST MISSOURI...

CITY           SKY/WX    TMP DP  RH WIND       PRES   REMARKS
CAPE GIRARDEAU PTSUNNY   88  67  49 VRB5      30.14F HX  91
FARMINGTON     PTSUNNY   86  70  58 S10       30.16F HX  90
POPLAR BLUFF   SUNNY     87  67  51 S7        30.13F HX  90
WEST PLAINS    PTSUNNY   83  71  67 SE8       30.18S

$$



USA.gov is the U.S. government's official web portal to all federal, state and local government web resources and services.